Orbital Elements at Epoch 2459200.5 (2020-Dec-17.0) TDB
Reference: JPL 23 (heliocentric ecliptic J2000)
Element | Value | Uncertainty (1-sigma) | Units |
e | .1447323858892203 | 5.015e-08 | |
a | 3.040746006226415 | 1.7589e-08 | au |
q | 2.600651581862148 | 1.5396e-07 | au |
i | 15.19756369089375 | 5.9396e-06 | deg |
node | 307.8230404438897 | 1.81e-05 | deg |
peri | 77.41936974139402 | 3.1415e-05 | deg |
M | 349.3395312087723 | 2.2201e-05 | deg |
tp | 2459257.851191722227 (2021-Feb-12.35119172) | 0.00011933 | TDB |
period | 1936.728058056073 5.30 | 1.6805e-05 4.601e-08 | d yr |
n | .1858805104322896 | 1.6129e-09 | deg/d |
Q | 3.480840430590682 | 2.0135e-08 | au |
|
| | Orbit Determination Parameters
Additional Information
|